Location: Kaseke
(18.0171°S, 31.0526°E)
Time: 12:50:44
(UTC+00:00)

Cosmos 1626 - Pass Details

Date: 14 July 2020
Orbit: 491 x 495 km, 82.5° (Epoch: 08 August)

Event Time Altitude Azimuth Distance (km) Brightness Sun altitude
Rises 03:43:45 0° 12° (NNE) 2,554 6.2 -10.6°
Reaches altitude 10° 03:45:58 10° 22° (NNE) 1,680 5.4 -10.1°
Maximum altitude 03:49:19 34° 88° (E) 832 4.0 -9.3°
Drops below altitude 10° 03:52:43 10° 154° (SSE) 1,702 4.9 -8.6°
Sets 03:54:58 0° 163° (SSE) 2,592 5.7 -8.0°
